IRIDIUM 98 [P] (27451 NORAD) Tracking and Keplerian Element Data

This shows tracking and keplerian element data for the satellite.

Feedback or suggestion? Click here.




ElementValue
Catalog27451
NameIRIDIUM 98 [P]
Epoch Orbit84761
Epoch Day195.93610044
Epoch Year2018
RAAN217.8633
Inclination86.3935
Eccentricity0.0139537
Argument of Perigee348.7642
Mean Anonmoly11.0465
Mean Motion14.71458035
Decay Rate2.25E-06
L11 27451U 02031B 18195.93610044 .00000225 00000-0 27209-4 0 9999
L22 27451 86.3935 217.8633 0139537 348.7642 11.0465 14.71458035847618

Live tracking and technical data element details for IRIDIUM 98 [P] (NORAD 27451). IRIDIUM 98 [P] can be tracked NOW for your location showing map with azimuth and elevation plus other details from your city location.

Track the satellite on the map from your city or location and see movement details for azimuth, elevation, latitude, longitude, range, height, and movement on the map or in text.







IsCatalogInMostPopularTable: catalog: 27451, numindb: 42
Update: records affected: 1



GetName: 27451 IRIDIUM 98 [P]

Hit Count: updated at: Mon, 16 Jul 2018 14:45:53 GMT